Tracking 29059 objects as of 19-Jun-2024
HD Live streaming from Space Station
objects crossing your sky now

OBJECT BR

Track OBJECT BR now!
10-day predictions


NORAD ID: 56989
Int'l Code: 2023-084BR
Perigee: 422.5 km
Apogee: 429.4 km
Inclination: 97.5 °
Period: 92.9 minutes
Semi major axis: 6796 km
RCS: Unknown
Launch date: June 12, 2023
Source: (TBD)
Launch site: AIR FORCE WESTERN TEST RANGE (AFWTR)
Your satellite tracking list
Your tracking list is empty




NASA's NSSDC Master Catalog

Two Line Element Set (TLE):
1 56989U 23084BR  24170.83812656  .00102281  00000-0  18508-2 0  9995
2 56989  97.5210 293.5334 0005026 325.2196  34.8725 15.49288105 56679
Source of the keplerian elements: AFSPC